Temp_Advection
nan nan nan nan nan nan nan nan nan nan nan nan nan nan nan nan nan nan nan nan nan nan nan nan nan nan nan nan nan nan nan nan nan nan nan nan nan nan nan nan nan nan nan
nan 2 1 1 0 1 1 1 1 0 0 0 0 0 0 0 -0 -0 0 0 -0 -0 -0 0 0 -0 -1 -1 -1 -1 -0 -0 0 0 0 -0 -0 -0 -0 -0 -0 -0 nan
nan -1 1 1 1 1 1 1 1 1 0 1 0 0 0 -0 -0 -0 -0 0 -0 -0 0 0 -0 -0 -0 -0 -1 -0 -0 -0 0 1 0 -0 -0 -0 0 0 0 -0 nan
nan 0 0 1 1 1 1 1 0 0 0 0 0 0 0 0 -0 -0 -0 -0 -0 -0 0 0 -0 -0 -0 -0 -0 -0 -0 0 0 0 0 -0 -0 -0 0 -0 -0 -0 nan
nan 2 3 1 0 0 0 0 0 -0 -0 0 0 0 0 0 -0 -0 0 0 -0 -0 -0 -0 -0 -0 -0 -0 -0 -0 -0 0 0 0 -0 -0 -0 -0 -0 -0 -0 -0 nan
nan 2 3 0 0 0 0 0 0 0 0 0 0 0 0 -0 -0 -1 -0 1 0 -0 -0 -0 -0 -0 -0 -0 -0 -0 -0 -0 0 0 -0 -0 -0 -0 0 0 -0 -0 nan
nan 2 1 -0 0 0 1 1 0 1 0 0 0 0 0 -0 -0 -0 -1 -0 0 -0 -0 -0 -0 -0 -0 -0 -0 -0 -0 0 -0 0 0 -0 -0 -0 -0 -0 -0 -0 nan
nan 1 1 0 1 1 1 1 1 0 0 0 0 0 0 0 -0 -0 -0 -0 -0 0 -0 -0 -0 0 0 -0 -0 -1 -1 0 0 0 -0 -0 -0 -0 -0 -0 -0 -0 nan
nan -0 -1 1 1 1 1 1 1 0 0 0 0 0 0 0 0 0 0 -0 -0 0 -0 -0 -0 0 0 0 -0 -0 -0 0 0 -0 -0 -0 -0 -0 -0 -0 -0 -0 nan
nan 0 1 -0 1 1 1 1 1 0 0 0 0 0 0 0 0 0 0 -0 -0 -0 -0 -0 -0 -0 0 0 0 -0 -0 -0 -0 -0 -0 -0 -0 0 0 0 -0 -0 nan
nan -0 1 -0 1 1 1 1 1 1 1 1 1 1 0 0 0 0 0 0 0 0 0 0 0 0 0 0 0 -0 0 0 0 -0 -0 -0 0 0 0 -0 -0 -0 nan
nan -0 -0 0 1 -0 1 1 1 0 1 1 1 1 0 0 0 0 -0 0 0 0 0 0 0 -0 -0 0 0 -0 -0 -0 -0 -0 -0 -0 -0 -0 -0 -0 -0 -0 nan
nan 1 0 0 1 0 0 1 1 1 1 0 1 1 1 0 1 0 -0 0 0 0 0 0 -0 -0 -0 -0 0 0 0 0 -0 -0 -0 -0 -0 -0 -0 -0 -0 -0 nan
nan 0 0 0 0 1 0 1 1 1 0 1 1 1 1 0 0 0 0 0 0 0 0 0 -0 -0 0 0 -0 -0 0 -0 0 0 -0 -0 -0 -0 -0 -0 -0 -0 nan
nan -0 0 1 1 1 1 1 1 1 1 0 1 1 0 1 -0 0 0 0 0 0 0 -0 0 0 0 -0 -0 0 -0 0 0 0 -0 -0 -0 -0 0 0 -0 -0 nan
nan -0 0 0 1 1 1 1 1 1 1 0 -0 1 0 0 -0 0 0 0 0 0 0 0 0 0 -0 0 0 -0 0 0 -0 0 0 -0 -0 -0 0 0 0 0 nan
nan 0 0 0 0 1 2 1 1 2 1 0 -0 0 1 -0 1 1 0 0 0 0 -0 0 0 0 0 0 0 -0 -0 0 -0 -0 0 0 0 0 0 0 -0 0 nan
nan 1 1 1 1 1 1 1 1 0 1 1 1 0 -1 -0 0 0 0 0 0 -0 0 0 0 0 0 0 0 0 -0 0 0 -0 -0 0 0 0 -0 0 0 0 nan
nan 0 0 1 0 0 -0 0 -0 -0 0 0 0 -1 -1 0 -0 0 0 0 0 0 0 0 0 0 0 0 0 -0 -0 -0 0 0 0 0 0 0 0 -0 -0 -0 nan
nan -0 -0 -0 -1 -0 -0 -0 -0 -0 -0 -0 -1 -1 0 0 0 1 0 0 0 0 -0 0 0 0 0 0 -0 0 0 -0 -0 0 0 0 0 0 0 0 0 -0 nan
nan -0 -0 -1 -1 -0 -0 -1 0 -1 -0 -0 -0 1 1 1 1 0 -0 -0 0 -0 0 0 0 0 0 0 0 0 0 0 0 0 0 0 0 0 0 0 0 0 nan
nan -1 -1 -1 -1 -1 -1 -1 -1 -0 -0 -0 0 0 0 0 -0 -1 -0 0 0 0 0 0 0 0 0 0 0 0 0 0 0 0 0 0 0 0 -0 0 0 0 nan
nan -1 -1 -0 -1 -1 -1 -1 -1 -0 0 -0 -0 -0 -0 -0 -0 -0 0 0 -0 0 0 0 0 0 0 0 0 0 0 0 0 0 0 0 0 0 0 0 0 0 nan
nan -0 0 0 0 -0 -0 -1 -0 0 -0 -1 -1 -0 -0 -0 -0 0 0 0 1 1 0 0 0 0 0 0 0 -0 0 0 0 0 0 0 0 0 0 0 0 0 nan
nan -0 -0 -0 -0 -0 -0 -0 -0 -1 -1 -1 -0 -0 0 -0 -0 0 0 1 1 1 1 0 0 1 0 0 0 0 0 1 0 0 -0 -0 -0 0 0 0 0 0 nan
nan nan nan nan nan nan nan nan nan nan nan nan nan nan nan nan nan nan nan nan nan nan nan nan nan nan nan nan nan nan nan nan nan nan nan nan nan nan nan nan nan nan nan
Wind_Speed
26 31 34 38 37 35 35 33 34 33 31 30 27 26 22 20 21 23 24 25 25 26 27 26 23 22 24 26 28 31 32 28 24 23 23 23 22 22 21 21 20 20 19
24 31 36 39 38 36 36 35 34 31 30 30 28 25 21 20 23 25 26 27 27 29 28 26 25 27 30 34 33 32 31 28 26 22 19 20 21 21 20 19 19 19 17
20 22 27 36 36 35 35 34 32 31 29 28 27 24 22 21 25 27 27 27 28 30 28 28 29 30 33 32 30 28 25 22 17 21 18 18 19 19 18 18 18 17 16
20 19 16 30 33 33 34 34 31 29 27 25 25 22 21 23 27 28 28 27 28 30 29 29 30 31 31 28 26 22 22 19 13 16 17 16 18 18 17 17 17 17 17
13 26 39 30 34 35 35 34 32 28 27 25 23 20 20 25 28 29 28 27 28 29 29 29 29 31 29 28 25 22 17 14 11 13 16 16 17 17 17 18 18 18 17
15 33 45 35 37 37 37 35 33 30 28 26 23 20 22 26 28 30 28 27 27 28 27 27 27 29 28 25 22 22 12 12 11 10 12 15 16 17 18 18 17 16 16
19 24 29 45 44 40 37 35 32 30 29 27 23 21 25 27 29 29 28 26 26 26 26 24 24 25 25 23 23 23 19 12 10 10 12 15 15 16 17 18 17 17 16
17 15 34 39 44 42 40 37 33 30 28 25 22 23 26 28 29 28 27 26 25 24 23 22 21 21 21 20 21 20 18 14 9 8 10 15 12 14 15 16 16 16 15
14 4 21 40 42 44 40 36 34 31 27 24 22 25 27 28 28 27 25 25 24 23 21 20 19 17 17 18 19 20 15 11 6 6 9 13 12 13 14 15 16 16 15
6 17 34 9 47 44 39 36 33 30 26 23 25 27 28 28 27 26 24 24 22 20 19 19 17 15 14 16 17 15 9 7 4 5 8 11 11 12 14 15 15 16 15
6 9 9 15 47 44 40 36 32 28 24 26 29 29 29 29 28 26 25 23 20 19 17 17 16 13 11 11 11 11 5 4 1 4 7 11 10 12 13 13 14 14 12
8 18 11 18 28 35 36 34 31 30 29 30 31 30 30 27 26 24 24 21 20 18 17 17 15 15 13 9 6 8 7 3 1 4 7 9 8 9 10 12 12 11 11
11 16 20 24 27 27 33 35 35 33 32 29 30 29 28 26 25 26 23 21 20 18 18 17 16 13 8 7 3 4 4 2 2 5 7 7 6 6 8 10 10 10 9
11 26 29 31 34 39 38 37 37 41 36 33 32 27 26 26 25 24 22 20 18 18 17 17 12 8 7 7 5 4 4 3 4 4 5 7 6 5 6 7 9 10 9
20 23 34 39 39 39 39 38 38 41 42 32 28 28 23 22 22 20 19 18 18 18 18 14 9 8 10 9 4 3 4 2 3 3 5 6 6 3 3 5 9 10 12
28 29 31 40 40 39 39 39 36 37 35 33 28 24 21 18 19 18 17 18 18 17 14 10 10 9 7 5 2 1 2 1 2 4 5 5 5 3 2 4 7 8 10
27 33 31 32 35 37 43 36 35 34 32 28 30 27 20 19 16 20 19 20 16 15 13 12 10 8 6 4 2 1 1 3 2 6 7 6 6 6 5 6 4 7 10
28 29 33 34 36 40 35 37 41 38 31 34 32 24 22 21 19 16 15 19 20 19 15 12 10 10 8 5 3 1 3 7 7 6 6 7 10 10 11 10 10 9 10
28 28 27 30 35 36 37 35 36 40 37 33 21 24 22 20 18 19 21 20 22 19 17 14 14 13 10 8 7 5 7 9 7 7 7 9 11 12 10 10 11 11 15
23 24 25 34 36 34 38 38 36 35 33 26 22 25 30 20 19 21 20 23 21 19 20 20 17 14 11 13 11 9 9 8 10 10 10 11 9 11 11 14 13 13 15
27 28 32 34 30 30 36 37 33 32 29 34 35 32 26 21 20 22 22 21 20 20 21 18 18 18 18 16 14 11 8 10 15 14 13 10 10 13 15 15 16 18 16
24 32 29 30 31 32 32 34 30 35 32 29 27 26 25 25 24 25 23 21 20 21 19 20 21 21 20 17 12 9 4 6 11 16 11 12 10 15 16 17 18 17 17
33 36 34 30 30 34 33 32 27 25 24 26 28 29 29 27 25 25 26 24 23 24 23 21 21 21 20 16 14 11 5 5 9 10 11 11 12 15 17 17 17 16 17
39 38 34 29 28 26 27 28 28 29 31 32 30 30 28 27 24 25 27 27 25 26 26 25 21 22 21 20 18 13 10 11 9 7 10 7 9 14 14 14 15 15 16
39 38 32 28 25 23 26 28 29 31 29 28 26 30 30 30 32 29 29 29 26 28 28 26 23 26 26 22 19 14 14 15 13 12 16 16 11 11 12 10 13 11 13
39 35 31 29 27 25 24 30 31 34 32 29 28 29 33 31 26 28 32 33 29 28 29 28 26 27 27 24 20 17 17 16 16 16 17 20 22 23 23 23 22 21 21
Wind_Direction
164 174 175 169 171 166 160 156 153 150 148 144 143 140 135 128 124 123 122 122 120 121 115 112 110 107 100 92 87 84 78 74 74 74 78 76 71 68 65 63 63 61 59
165 178 183 176 174 170 164 158 157 154 150 146 144 139 133 127 125 124 125 124 124 121 119 115 110 102 97 95 90 87 80 73 71 65 69 72 67 62 59 57 56 55 56
164 170 193 184 177 172 166 159 158 155 150 148 143 139 134 129 129 128 127 125 125 122 119 114 107 102 103 98 96 91 76 66 60 67 61 68 67 61 56 51 50 49 49
239 227 178 188 180 175 167 161 158 154 150 147 142 141 133 132 131 130 129 128 126 123 119 114 107 108 109 104 100 97 94 97 92 54 48 61 65 60 57 54 53 51 51
232 221 241 197 184 178 170 164 161 157 153 150 145 140 133 136 135 133 131 130 130 125 121 115 111 115 112 109 103 98 99 114 90 61 47 52 63 63 58 55 53 52 52
246 219 217 212 181 180 173 168 164 159 158 155 149 145 139 140 137 135 132 132 129 125 123 120 115 116 116 113 102 85 120 131 120 74 42 44 55 56 52 52 52 52 50
216 238 219 178 179 177 173 169 165 162 160 156 151 146 144 144 140 138 138 136 133 129 128 125 118 114 117 114 103 89 91 115 88 60 42 35 47 49 47 44 44 44 47
188 182 193 177 176 173 173 169 165 162 161 156 149 147 148 145 143 145 145 137 136 134 130 127 120 115 114 126 115 101 87 121 83 32 31 18 41 49 45 46 46 39 39
187 73 22 182 176 170 171 166 163 162 160 154 148 149 148 146 147 148 146 141 140 137 131 128 124 118 114 119 127 111 73 77 56 33 11 9 26 37 38 39 39 38 34
139 241 294 15 173 168 164 163 162 160 156 151 149 150 149 146 144 144 144 144 141 137 133 131 127 124 116 112 131 128 102 86 51 27 9 7 20 19 25 27 31 30 27
117 53 232 355 150 159 158 158 158 154 152 151 151 151 149 147 148 146 144 143 142 139 137 138 137 122 114 111 135 121 123 109 65 356 11 11 10 1 10 15 19 25 33
128 114 142 118 161 156 150 153 154 152 152 152 150 151 151 149 149 148 143 146 148 146 148 139 130 125 122 136 123 118 154 175 304 357 3 7 357 349 1 5 13 21 22
122 165 157 160 166 171 158 158 155 148 150 149 149 150 150 152 154 156 151 154 153 157 152 147 146 154 152 134 125 127 164 240 297 344 359 3 10 350 351 352 357 359 12
155 158 163 175 177 165 160 157 152 149 150 154 150 148 150 159 164 156 158 159 164 160 160 161 157 154 161 181 217 177 180 259 271 298 353 12 15 342 333 334 334 338 354
180 177 170 169 171 169 165 160 157 155 156 154 149 161 166 168 168 165 165 169 170 171 175 170 167 177 190 213 198 146 140 194 273 311 351 1 5 339 305 314 323 329 331
166 176 182 172 166 168 169 161 160 163 154 153 159 166 166 172 172 170 173 176 177 180 187 185 191 189 194 181 151 63 314 146 296 290 316 325 341 334 299 300 296 302 311
177 182 191 184 176 167 166 167 160 155 163 162 161 157 177 174 179 195 181 185 185 190 201 192 191 187 194 187 162 126 119 338 353 300 285 294 303 304 304 312 306 305 303
182 180 179 180 180 176 169 164 165 162 171 169 171 174 185 178 178 189 196 192 194 205 200 201 203 202 205 208 234 286 322 318 315 312 281 293 291 289 310 312 305 310 319
181 173 180 184 173 162 157 158 169 172 172 166 174 190 184 188 192 201 208 200 198 199 202 213 214 208 198 199 233 248 289 314 313 302 290 293 279 285 309 310 294 314 316
173 174 168 154 161 169 164 168 173 175 175 172 179 182 192 197 207 209 207 202 202 202 210 219 211 196 197 200 216 228 269 298 308 298 287 298 294 303 301 309 310 301 309
168 168 166 166 171 174 170 177 170 173 167 184 188 192 203 218 216 210 205 205 205 217 221 212 200 203 207 211 213 237 245 273 276 272 279 295 280 267 271 292 307 298 299
167 162 162 157 157 168 176 179 173 174 184 195 203 211 217 220 215 209 207 211 221 223 213 214 215 210 216 222 226 227 245 258 255 256 272 283 271 251 272 298 302 286 286
171 162 162 160 160 162 163 176 184 190 201 213 216 220 225 220 214 214 214 212 223 222 221 222 223 219 216 227 234 239 229 232 221 246 252 258 261 260 281 286 288 298 293
170 169 174 180 183 181 184 191 194 199 207 213 217 219 218 218 219 215 222 224 223 222 222 226 228 218 217 224 228 245 257 270 258 251 243 224 238 268 286 287 285 280 286
179 180 185 191 192 194 198 198 200 211 218 220 220 216 218 220 217 217 218 227 224 227 224 228 227 219 219 221 225 242 260 262 259 260 281 292 279 257 279 262 284 278 283
197 202 203 201 208 210 206 203 205 212 219 223 222 219 223 228 227 222 221 222 224 229 232 231 231 224 226 226 226 241 238 233 244 256 263 268 273 273 271 269 277 279 282
Height
1497 1504 1509 1501 1509 1511 1512 1516 1518 1519 1521 1524 1529 1533 1535 1536 1537 1539 1542 1545 1548 1550 1553 1556 1558 1559 1561 1562 1562 1563 1565 1565 1565 1566 1566 1565 1565 1565 1566 1566 1565 1565 1565
1499 1504 1508 1503 1506 1509 1512 1513 1518 1522 1525 1524 1528 1532 1535 1537 1538 1541 1544 1546 1550 1553 1556 1559 1561 1562 1563 1565 1566 1566 1567 1568 1568 1568 1568 1569 1569 1569 1569 1568 1567 1567 1567
1497 1503 1511 1509 1508 1512 1514 1516 1521 1524 1528 1530 1529 1532 1535 1538 1539 1543 1546 1549 1552 1554 1558 1561 1563 1565 1566 1567 1568 1569 1568 1571 1570 1571 1572 1572 1572 1571 1571 1571 1570 1569 1569
1488 1491 1492 1511 1513 1518 1517 1517 1523 1527 1531 1535 1533 1537 1536 1538 1541 1544 1547 1551 1555 1557 1561 1562 1565 1567 1568 1570 1571 1573 1573 1573 1573 1574 1574 1574 1574 1573 1573 1572 1571 1570 1570
1481 1479 1495 1509 1512 1518 1518 1517 1521 1527 1530 1534 1537 1539 1539 1541 1543 1546 1550 1554 1557 1559 1563 1564 1567 1569 1571 1573 1573 1576 1575 1575 1575 1575 1576 1577 1575 1575 1574 1573 1572 1572 1571
1475 1474 1482 1506 1508 1515 1516 1518 1522 1523 1529 1532 1534 1540 1540 1543 1545 1548 1552 1556 1559 1562 1565 1567 1569 1571 1573 1575 1576 1578 1574 1576 1578 1577 1577 1577 1576 1576 1575 1574 1573 1573 1573
1475 1472 1453 1489 1500 1510 1514 1519 1522 1525 1528 1531 1534 1538 1541 1544 1547 1550 1555 1558 1562 1564 1567 1569 1571 1573 1574 1577 1578 1580 1577 1578 1578 1578 1579 1578 1577 1576 1576 1576 1575 1574 1573
1483 1485 1466 1481 1495 1502 1510 1515 1519 1524 1529 1532 1534 1538 1542 1544 1549 1552 1556 1559 1563 1566 1568 1571 1573 1574 1576 1579 1580 1581 1578 1579 1579 1580 1580 1580 1579 1578 1577 1577 1576 1575 1574
1471 1464 1478 1489 1489 1496 1507 1513 1517 1522 1528 1531 1534 1540 1544 1547 1550 1554 1558 1562 1565 1567 1570 1572 1574 1576 1578 1580 1581 1582 1581 1580 1581 1581 1581 1580 1580 1579 1578 1577 1577 1575 1574
1478 1483 1478 1456 1486 1496 1505 1511 1517 1522 1528 1531 1536 1541 1546 1549 1552 1556 1560 1564 1566 1569 1571 1572 1574 1577 1579 1581 1582 1582 1581 1581 1581 1582 1582 1582 1580 1579 1578 1578 1577 1577 1575
1479 1472 1482 1469 1470 1490 1502 1511 1518 1523 1528 1533 1536 1542 1546 1550 1553 1557 1561 1565 1568 1570 1572 1573 1576 1578 1580 1582 1583 1583 1582 1583 1582 1582 1582 1582 1580 1580 1579 1579 1578 1576 1577
1471 1469 1485 1492 1491 1493 1501 1511 1519 1520 1528 1534 1537 1543 1546 1550 1556 1559 1562 1566 1569 1571 1573 1576 1576 1578 1579 1581 1583 1583 1581 1583 1582 1583 1583 1582 1581 1581 1579 1579 1579 1578 1578
1477 1478 1483 1489 1497 1498 1508 1511 1515 1518 1528 1535 1538 1545 1550 1554 1557 1559 1561 1566 1569 1572 1574 1575 1576 1578 1579 1581 1583 1584 1582 1583 1583 1582 1582 1582 1581 1580 1579 1579 1580 1579 1578
1481 1485 1490 1496 1503 1508 1509 1512 1513 1517 1522 1533 1539 1546 1552 1555 1560 1559 1562 1567 1570 1572 1574 1575 1576 1578 1580 1583 1584 1583 1583 1583 1582 1583 1581 1581 1581 1581 1580 1580 1580 1580 1578
1482 1485 1491 1495 1502 1506 1505 1510 1515 1520 1522 1534 1543 1549 1552 1556 1561 1561 1564 1568 1571 1573 1574 1575 1577 1579 1581 1582 1582 1582 1583 1583 1581 1582 1581 1579 1581 1582 1581 1581 1581 1580 1579
1483 1486 1491 1494 1496 1499 1505 1513 1517 1528 1533 1537 1543 1547 1550 1558 1559 1562 1564 1567 1570 1573 1574 1575 1576 1579 1580 1582 1582 1581 1582 1582 1581 1581 1580 1580 1580 1581 1581 1581 1581 1581 1581
1483 1486 1489 1491 1497 1501 1508 1514 1522 1527 1535 1538 1541 1547 1553 1557 1558 1562 1564 1565 1568 1571 1573 1574 1576 1577 1579 1581 1581 1581 1581 1580 1582 1580 1580 1579 1578 1580 1579 1579 1579 1580 1579
1487 1486 1489 1494 1498 1503 1507 1513 1518 1528 1532 1536 1539 1546 1553 1554 1557 1560 1563 1565 1568 1570 1572 1573 1575 1576 1578 1579 1580 1579 1580 1580 1580 1580 1579 1578 1577 1578 1579 1577 1577 1577 1577
1486 1490 1493 1495 1499 1504 1508 1516 1522 1527 1530 1536 1542 1547 1550 1552 1555 1560 1562 1565 1566 1568 1570 1572 1574 1575 1576 1577 1579 1579 1579 1579 1578 1578 1577 1577 1576 1575 1576 1576 1575 1575 1575
1490 1493 1495 1499 1503 1506 1511 1520 1525 1530 1533 1537 1541 1545 1549 1552 1554 1557 1559 1561 1563 1566 1568 1570 1571 1573 1574 1576 1577 1577 1577 1577 1577 1577 1577 1576 1575 1572 1572 1572 1572 1570 1571
1493 1493 1494 1499 1504 1509 1513 1521 1525 1527 1530 1535 1539 1543 1547 1549 1553 1555 1556 1558 1561 1563 1565 1567 1569 1571 1572 1573 1575 1576 1575 1573 1574 1575 1575 1574 1573 1572 1572 1571 1570 1569 1568
1492 1495 1497 1501 1504 1508 1513 1519 1523 1527 1530 1535 1539 1541 1544 1548 1550 1552 1553 1555 1558 1559 1561 1564 1565 1568 1570 1571 1572 1572 1571 1572 1571 1571 1571 1571 1570 1571 1571 1569 1568 1566 1565
1490 1492 1496 1498 1502 1507 1510 1517 1521 1526 1529 1532 1534 1537 1540 1543 1546 1548 1549 1551 1553 1554 1556 1559 1562 1564 1565 1566 1568 1569 1567 1567 1567 1569 1567 1568 1568 1568 1569 1567 1566 1565 1563
1486 1491 1495 1498 1501 1504 1509 1513 1517 1518 1521 1525 1529 1533 1536 1537 1541 1544 1544 1546 1547 1548 1551 1553 1557 1560 1561 1562 1563 1563 1563 1563 1564 1565 1564 1564 1566 1566 1565 1564 1563 1562 1561
1485 1488 1492 1496 1498 1502 1505 1508 1511 1515 1519 1523 1527 1529 1531 1534 1537 1539 1540 1540 1543 1544 1547 1549 1551 1553 1556 1557 1558 1558 1559 1559 1560 1560 1559 1560 1561 1561 1560 1560 1559 1557 1557
1483 1486 1490 1492 1495 1498 1501 1504 1507 1511 1515 1518 1521 1523 1526 1528 1532 1534 1536 1536 1539 1541 1542 1543 1546 1547 1550 1553 1554 1554 1554 1555 1556 1556 1555 1554 1553 1553 1554 1554 1554 1553 1552